Louisville, KY

1:54 PM EST on February 12, 2016 (GMT -0500)
Louisville International-Standiford

Weather History for KSDF - November, 2013

Change the Weather History Date:

Monday, November 18, 2013

  Actual Average Record
Temperature  
Mean Temperature 50 °F 48 °F  
Max Temperature 57 °F 57 °F 77 °F (1985)
Min Temperature 42 °F 39 °F 13 °F (1959)
Degree Days  
Heating Degree Days 15 17  
Month to date heating degree days 277 251  
Since 1 July heating degree days 510 493  
Cooling Degree Days 0 0  
Month to date cooling degree days 0 0  
Year to date cooling degree days 1628 1609  
Moisture  
Dew Point 35 °F    
Average Humidity 59    
Maximum Humidity 80    
Minimum Humidity 38    
Precipitation  
Precipitation 0.00 in 0.13 in 3.07 in (1957)
Month to date precipitation 3.56 2.04  
Year to date precipitation 48.01 39.53  
Snow  
Snow 0.00 in 0.00 in 0.30 in (1955)
Month to date snowfall 0.3 0.0  
Since 1 July snowfall 0.3 0.1  
Since 1 September snowfall 0.3 0.1  
Snow Depth 0.00 in    
Sea Level Pressure  
Sea Level Pressure 30.07 in    
Wind  
Wind Speed 11 mph (WNW)    
Max Wind Speed 23 mph    
Max Gust Speed 30 mph    
Visibility 10 miles    
Events      
T = Trace of Precipitation, MM = Missing Value Source: NWS Daily Summary

Daily Weather History Graph

Daily Weather History Graph

Search for Another Location

Airport or City:

Trip Planner

Search our weather history database for the weather conditions in past years. The results will help you decide how hot, cold, wet, or windy it might be!

Date:

Astronomy

Nov. 18, 2013 Rise Set
Actual Time 7:27 AM EST 5:28 PM EST
Civil Twilight 6:59 AM EST 5:56 PM EST
Nautical Twilight 6:27 AM EST 6:28 PM EST
Astronomical Twilight 5:55 AM EST 7:00 PM EST
Moon 6:30 PM EST (11/18) 8:15 AM EST (11/18)
Length of Visible Light 10h 57m
Length of Day
10h 01m
Full, 99% of the Moon is Illuminated
Nov 18
Full
Nov 25
Last Quarter
Dec 2
New
Dec 9
First Quarter
Dec 17
Full

Hourly Weather History & Observations

Time (EST) Temp. Windchill Dew Point Humidity Pressure Visibility Wind Dir Wind Speed Gust Speed Precip Events Conditions
12:56 AM 48.9 °F - 42.1 °F 77% 29.89 in 10.0 mi West 9.2 mph - N/A   Clear
1:56 AM 50.0 °F - 41.0 °F 71% 29.91 in 10.0 mi West 8.1 mph - N/A   Clear
2:56 AM 48.0 °F - 39.9 °F 74% 29.94 in 10.0 mi West 6.9 mph - N/A   Clear
3:56 AM 48.9 °F - 39.9 °F 71% 29.96 in 10.0 mi WNW 10.4 mph - N/A   Clear
4:56 AM 48.0 °F - 39.0 °F 71% 29.99 in 10.0 mi NW 8.1 mph - N/A   Clear
5:56 AM 46.0 °F 43.9 °F 37.9 °F 73% 30.01 in 10.0 mi West 4.6 mph - N/A   Clear
6:56 AM 46.0 °F 43.9 °F 37.0 °F 71% 30.01 in 10.0 mi SSW 4.6 mph - N/A   Clear
7:56 AM 45.0 °F 42.6 °F 37.9 °F 76% 30.02 in 10.0 mi SW 4.6 mph - N/A   Clear
8:56 AM 48.9 °F - 39.9 °F 71% 30.05 in 10.0 mi West 10.4 mph - N/A   Clear
9:56 AM 52.0 °F - 39.9 °F 63% 30.07 in 10.0 mi West 15.0 mph - N/A   Clear
10:56 AM 54.0 °F - 37.9 °F 55% 30.09 in 10.0 mi WNW 13.8 mph - N/A   Partly Cloudy
11:56 AM 55.0 °F - 37.9 °F 53% 30.08 in 10.0 mi West 16.1 mph 25.3 mph N/A   Partly Cloudy
12:56 PM 55.9 °F - 34.0 °F 44% 30.07 in 10.0 mi WNW 18.4 mph 26.5 mph N/A   Partly Cloudy
1:56 PM 57.0 °F - 33.1 °F 40% 30.07 in 10.0 mi West 15.0 mph 26.5 mph N/A   Partly Cloudy
2:56 PM 57.0 °F - 32.0 °F 39% 30.08 in 10.0 mi West 19.6 mph 24.2 mph N/A   Partly Cloudy
3:56 PM 55.9 °F - 30.9 °F 39% 30.10 in 10.0 mi WNW 18.4 mph 23.0 mph N/A   Partly Cloudy
4:56 PM 53.1 °F - 28.9 °F 40% 30.12 in 10.0 mi WNW 15.0 mph - N/A   Partly Cloudy
5:56 PM 51.1 °F - 27.0 °F 39% 30.14 in 10.0 mi WNW 10.4 mph - N/A   Clear
6:56 PM 48.0 °F - 28.0 °F 46% 30.17 in 10.0 mi WNW 10.4 mph - N/A   Clear
7:56 PM 46.9 °F - 28.0 °F 48% 30.18 in 10.0 mi NW 6.9 mph - N/A   Clear
8:56 PM 46.0 °F 43.1 °F 28.0 °F 50% 30.19 in 10.0 mi WNW 5.8 mph - N/A   Clear
9:56 PM 44.1 °F 40.8 °F 28.0 °F 53% 30.22 in 10.0 mi NW 5.8 mph - N/A   Clear
10:56 PM 43.0 °F 38.2 °F 28.0 °F 56% 30.23 in 10.0 mi WNW 8.1 mph - N/A   Clear
11:56 PM 42.1 °F 37.7 °F 28.0 °F 58% 30.24 in 10.0 mi NW 6.9 mph - N/A   Clear